sat.trackr.live / text

‹ back to catalog

ZHEDA PIXING 1B

NORAD 37166 · 2010-047B

PAYLOAD ACTIVE UNKNOWN

§ Identity

Operator
Country
PRC
Launch date
2010-09-22
Launch site
JSC
Launch vehicle
Mass (kg)
RCS (m²)
0.15

External: N2YO · Heavens-Above · Gunter

§ Orbital elements

Epoch: 2026-05-25T03:35:49.910208Z

Period
96.57 min
Inclination
97.9468°
Eccentricity
0.0019492
Mean motion
14.91118130 rev/d
Perigee alt
580.9 km
Apogee alt
608.0 km
Semi-major
6,972.6 km
B*
1.9875e-4
RAAN
123.1654°
Arg perigee
1.5190°
Mean anomaly
358.6084°
Rev number
84,698

§ Raw data

ZHEDA PIXING 1B1 37166U 10047B   26145.14988322  .00001919  00000+0  19875-3 0  99922 37166  97.9468 123.1654 0019492   1.5190 358.6084 14.91118130846989

JSON: /api/v1/satellites/37166 · /tle

For live sub-satellite position, see the globe view (requires WebGL).

§ Visibility from observer

Set your observer location to see the next 7 days of passes ≥ 10°. The values pass through the URL so the page stays shareable.

No JS? Fill the form by hand. The geolocation button needs JavaScript.

§ Radio — SatNOGS DB

ModeDescriptionDownlinkUplink
BPSK S-band telemetry 2.290 GHz

1 transmitter · refreshed weekly from db.satnogs.org